Retour au catalogue

STARLINK-32465

ActifCommunicationsVLEO
NORAD 61716·PAYLOAD·🇺🇸 United States

Lancé Oct 30, 2024 depuis Cape Canaveral Space Force Station

Loading…

Prochains Passages (prochaines 24 heures)

TLE

FraisSource: CelesTrak SupGP

Époque: Sep 14, 2026, 20:58 UTC

1 61716C 24196K   26257.87409722  .00004417  00000+0  13054-3 0  2572
2 61716  53.1586 299.9336 0001320  89.7269 109.1450 15.34377269    17

Suivez STARLINK-32465 en temps réel avec AllMySat

Download on the App Store